Weather History for KARA - May, 2013

Change the Weather History Date:

Tuesday, May 7, 2013

  Actual Average Record
Temperature  
Mean Temperature 72 °F 74 °F  
Max Temperature 84 °F 84 °F 92 °F (1963)
Min Temperature 59 °F 64 °F 50 °F (1958)
Degree Days  
Heating Degree Days 0 0  
Month to date heating degree days 21 0  
Since 1 July heating degree days 1150 1408  
Cooling Degree Days 7 9  
Month to date cooling degree days 24 58  
Year to date cooling degree days 268 278  
Growing Degree Days 21 (Base 50)    
Moisture  
Dew Point 56 °F    
Average Humidity 64    
Maximum Humidity 90    
Minimum Humidity 37    
Precipitation  
Precipitation 0.00 in 0.12 in 1.67 in (1969)
Month to date precipitation 2.23 0.90  
Year to date precipitation 28.48 18.15  
Sea Level Pressure  
Sea Level Pressure 30.03 in    
Wind  
Wind Speed 5 mph (West)    
Max Wind Speed 16 mph    
Max Gust Speed 20 mph    
Visibility 10 miles    
Events      
T = Trace of Precipitation, MM = Missing Value Source: NWS Daily Summary

Daily Weather History Graph

Daily Weather History Graph

Search for Another Location

Airport or City:

Trip Planner

Search our weather history database for the weather conditions in past years. The results will help you decide how hot, cold, wet, or windy it might be!

Date:

Astronomy

May. 07, 2013 Rise Set
Actual Time 6:19 AM CDT 7:49 PM CDT
Civil Twilight 5:53 AM CDT 8:14 PM CDT
Nautical Twilight 5:22 AM CDT 8:45 PM CDT
Astronomical Twilight 4:50 AM CDT 9:17 PM CDT
Moon 4:44 AM CDT (5/7) 5:56 PM CDT (5/7)
Length of Visible Light 14h 21m
Length of Day
13h 29m
Waning Crescent, 5% of the Moon is Illuminated
May 7
Waning Crescent
May 9
New
May 17
First Quarter
May 24
Full
May 31
Last Quarter

Hourly Weather History & Observations

Time (CDT) Temp. Heat Index Dew Point Humidity Pressure Visibility Wind Dir Wind Speed Gust Speed Precip Events Conditions
12:53 AM 62.1 °F - 55.9 °F 80% 30.01 in 10.0 mi Calm Calm - N/A   Clear
1:53 AM 60.1 °F - 55.9 °F 86% 30.00 in 10.0 mi Calm Calm - N/A   Clear
2:53 AM 60.1 °F - 55.9 °F 86% 29.99 in 5.0 mi Calm Calm - N/A   Clear
3:53 AM 61.0 °F - 57.0 °F 87% 30.01 in 8.0 mi Calm Calm - N/A   Clear
4:53 AM 63.0 °F - 57.9 °F 84% 30.01 in 9.0 mi NW 4.6 mph - N/A   Clear
5:53 AM 61.0 °F - 57.0 °F 87% 30.02 in 7.0 mi Calm Calm - N/A   Clear
6:53 AM 63.0 °F - 59.0 °F 87% 30.03 in 8.0 mi Calm Calm - N/A   Partly Cloudy
7:53 AM 66.9 °F - 60.1 °F 79% 30.05 in 10.0 mi WSW 4.6 mph - N/A   Clear
8:53 AM 71.1 °F - 57.9 °F 63% 30.06 in 10.0 mi West 8.1 mph - N/A   Clear
9:53 AM 75.0 °F - 57.0 °F 53% 30.07 in 10.0 mi NW 9.2 mph - N/A   Clear
10:53 AM 79.0 °F - 55.9 °F 45% 30.07 in 10.0 mi West 5.8 mph - N/A   Clear
11:53 AM 81.0 °F 80.4 °F 53.1 °F 38% 30.06 in 10.0 mi WNW 6.9 mph - N/A   Clear
12:53 PM 81.0 °F 80.4 °F 53.1 °F 38% 30.05 in 10.0 mi WNW 6.9 mph - N/A   Clear
1:53 PM 82.0 °F 81.2 °F 53.1 °F 37% 30.04 in 10.0 mi West 9.2 mph - N/A   Partly Cloudy
2:53 PM 81.0 °F 80.4 °F 53.1 °F 38% 30.02 in 10.0 mi NW 8.1 mph - N/A   Scattered Clouds
3:53 PM 82.9 °F 81.8 °F 53.1 °F 36% 30.00 in 10.0 mi WNW 10.4 mph - N/A   Partly Cloudy
4:53 PM 82.9 °F 81.8 °F 53.1 °F 36% 30.00 in 10.0 mi West 8.1 mph - N/A   Scattered Clouds
5:53 PM 81.0 °F 81.0 °F 57.0 °F 44% 30.00 in 10.0 mi South 11.5 mph - N/A   Scattered Clouds
6:53 PM 78.1 °F - 57.0 °F 48% 30.00 in 10.0 mi SSW 13.8 mph - N/A   Clear
7:53 PM 73.0 °F - 55.9 °F 55% 30.01 in 10.0 mi SSW 8.1 mph - N/A   Clear
8:53 PM 70.0 °F - 57.0 °F 63% 30.03 in 10.0 mi WSW 5.8 mph - N/A   Clear
9:53 PM 69.1 °F - 57.0 °F 65% 30.05 in 10.0 mi SW 3.5 mph - N/A   Clear
10:53 PM 66.9 °F - 57.9 °F 73% 30.06 in 10.0 mi SSW 3.5 mph - N/A   Clear
11:53 PM 66.0 °F - 59.0 °F 78% 30.06 in 10.0 mi Calm Calm - N/A   Clear